Location: Lhota
(50.0887°N, 14.0116°E)
Time: 00:02:57
(UTC+00:00)

SL-14 R/B - Pass Details

Date: 19 May 2025
Orbit: 500 x 530 km, 82.4° (Epoch: 22 June)

Event Time Altitude Azimuth Distance (km) Brightness Sun altitude
Exits shadow 23:53:56 54° 195° (SSW) 640 3.2 -18.9°
Maximum altitude 23:54:46 86° 275° (W) 528 3.1 -18.9°
Drops below altitude 10° 23:58:40 10° 10° (N) 1,773 7.2 -18.7°
Sets 00:00:50 0° 10° (N) 2,671 8.5 -18.7°
